H1 CPF 2 NER 2023 4 28 9 118 01 glonass106 H2 0705201 9106 32275 2023 4 28 0 0 0 2023 5 1 23 45 0 900 1 1 0 0 0 1 H9 10 0 60062 0.00000 0 -20040414.348 15197461.797 4241368.386 10 0 60062 900.00000 0 -19366075.759 14863511.141 7387180.435 10 0 60062 1800.00000 0 -18463751.142 14200677.569 10389441.898 10 0 60062 2700.00000 0 -17391396.275 13192839.997 13189806.997 10 0 60062 3600.00000 0 -16210807.818 11836981.371 15733854.285 10 0 60062 4500.00000 0 -14984938.196 10143561.617 17972146.096 10 0 60062 5400.00000 0 -13775180.594 8136331.024 19861190.161 10 0 60062 6300.00000 0 -12638738.597 5851590.775 21364284.726 10 0 60062 7200.00000 0 -11626191.270 3336930.570 22452230.899 10 0 60062 8100.00000 0 -10779355.981 649495.111 23103898.716 10 0 60062 9000.00000 0 -10129538.563 -2146149.140 23306636.259 10 0 60062 9900.00000 0 -9696244.016 -4980458.894 23056514.195 10 0 60062 10800.00000 0 -9486401.485 -7781569.677 22358401.219 10 0 60062 11700.00000 0 -9494135.646 -10478052.482 21225869.051 10 0 60062 12600.00000 0 -9701093.701 -13001657.442 19680928.775 10 0 60062 13500.00000 0 -10077313.827 -15289931.052 17753603.522 10 0 60062 14400.00000 0 -10582598.213 -17288598.646 15481345.500 10 0 60062 15300.00000 0 -11168332.544 -18953613.463 12908308.468 10 0 60062 16200.00000 0 -11779674.942 -20252787.463 10084489.524 10 0 60062 17100.00000 0 -12358021.730 -21166936.474 7064756.737 10 0 60062 18000.00000 0 -12843645.548 -21690492.470 3907781.530 10 0 60062 18900.00000 0 -13178394.003 -21831558.172 674896.726 10 0 60062 19800.00000 0 -13308334.360 -21611402.553 -2571097.317 10 0 60062 20700.00000 0 -13186231.981 -21063419.353 -5767154.805 10 0 60062 21600.00000 0 -12773757.269 -20231593.337 -8851210.713 10 0 60062 22500.00000 0 -12043327.326 -19168539.683 -11763386.902 10 0 60062 23400.00000 0 -10979504.017 -17933199.729 -14447154.384 10 0 60062 24300.00000 0 -9579888.874 -16588290.651 -16850429.124 10 0 60062 25200.00000 0 -7855476.464 -15197616.639 -18926580.201 10 0 60062 26100.00000 0 -5830450.596 -13823354.760 -20635331.059 10 0 60062 27000.00000 0 -3541431.022 -12523429.331 -21943536.848 10 0 60062 27900.00000 0 -1036201.138 -11349084.664 -22825823.404 10 0 60062 28800.00000 0 1628031.271 -10342757.462 -23265076.041 10 0 60062 29700.00000 0 4386768.876 -9536337.404 -23252769.245 10 0 60062 30600.00000 0 7170667.645 -8949888.155 -22789131.260 10 0 60062 31500.00000 0 9908187.204 -8590881.759 -21883140.542 10 0 60062 32400.00000 0 12528339.740 -8453978.000 -20552354.068 10 0 60062 33300.00000 0 14963424.230 -8521357.572 -18822570.518 10 0 60062 34200.00000 0 17151633.194 -8763594.855 -16727334.336 10 0 60062 35100.00000 0 19039424.192 -9141033.486 -14307289.687 10 0 60062 36000.00000 0 20583557.919 -9605606.828 -11609396.136 10 0 60062 36900.00000 0 21752718.192 -10103026.646 -8686020.697 10 0 60062 37800.00000 0 22528646.524 -10575247.610 -5593923.434 10 0 60062 38700.00000 0 22906744.026 -10963103.428 -2393156.013 10 0 60062 39600.00000 0 22896115.654 -11209002.901 854105.366 10 0 60062 40500.00000 0 22519055.224 -11259571.416 4084769.782 10 0 60062 41400.00000 0 21809993.150 -11068125.510 7236060.286 10 0 60062 42300.00000 0 20813951.578 -10596875.027 10246737.041 10 0 60062 43200.00000 0 19584572.353 -9818758.836 13058290.619 10 0 60062 44100.00000 0 18181801.284 -8718835.533 15616081.811 10 0 60062 45000.00000 0 16669326.599 -7295169.351 17870405.398 10 0 60062 45900.00000 0 15111879.689 -5559172.793 19777457.054 10 0 60062 46800.00000 0 13572511.853 -3535390.434 21300184.604 10 0 60062 47700.00000 0 12109961.504 -1260731.786 22409007.251 10 0 60062 48600.00000 0 10776222.284 1216815.737 23082389.090 10 0 60062 49500.00000 0 9614413.782 3839941.098 23307256.121 10 0 60062 50400.00000 0 8657043.751 6544158.867 23079248.976 10 0 60062 51300.00000 0 7924734.074 9260264.804 22402806.695 10 0 60062 52200.00000 0 7425463.253 11916996.331 21291080.040 10 0 60062 53100.00000 0 7154356.491 14443787.883 19765676.014 10 0 60062 54000.00000 0 7094031.477 16773507.045 17856238.373 10 0 60062 54900.00000 0 7215484.623 18845058.121 15599872.044 10 0 60062 55800.00000 0 7479479.846 20605745.059 13040422.343 10 0 60062 56700.00000 0 7838380.766 22013295.604 10227622.774 10 0 60062 57600.00000 0 8238348.487 23037462.593 7216127.778 10 0 60062 58500.00000 0 8621811.613 23661135.864 4064449.258 10 0 60062 59400.00000 0 8930103.574 23880918.758 833817.704 10 0 60062 60300.00000 0 9106155.220 23707145.681 -2413009.708 10 0 60062 61200.00000 0 9097128.239 23163340.665 -5612970.422 10 0 60062 62100.00000 0 8856877.453 22285140.430 -8703923.088 10 0 60062 63000.00000 0 8348137.342 21118727.915 -11625855.201 10 0 60062 63900.00000 0 7544339.843 19718842.817 -14322048.052 10 0 60062 64800.00000 0 6430986.090 18146453.280 -16740176.261 10 0 60062 65700.00000 0 5006513.614 16466186.860 -18833320.664 10 0 60062 66600.00000 0 3282621.788 14743628.783 -20560875.175 10 0 60062 67500.00000 0 1284040.971 13042600.659 -21889330.507 10 0 60062 68400.00000 0 -952245.971 11422533.331 -22792920.165 10 0 60062 69300.00000 0 -3378298.264 9936043.324 -23254116.770 10 0 60062 70200.00000 0 -5936975.135 8626813.542 -23263969.638 10 0 60062 71100.00000 0 -8564084.958 7527866.057 -22822277.506 10 0 60062 72000.00000 0 -11190837.416 6660298.386 -21937593.201 10 0 60062 72900.00000 0 -13746497.815 6032535.304 -20627060.136 10 0 60062 73800.00000 0 -16161134.241 5640126.811 -18916083.485 10 0 60062 74700.00000 0 -18368344.135 5466100.112 -16837841.910 10 0 60062 75600.00000 0 -20307847.491 5481850.378 -14432648.692 10 0 60062 76500.00000 0 -21927839.136 5648532.496 -11747173.951 10 0 60062 77400.00000 0 -23187002.211 5918894.948 -8833542.449 10 0 60062 78300.00000 0 -24056098.908 6239478.269 -5748324.029 10 0 60062 79200.00000 0 -24519071.908 6553084.988 -2551435.976 10 0 60062 80100.00000 0 -24573610.382 6801416.309 695021.347 10 0 60062 81000.00000 0 -24231156.806 6927763.539 3927972.814 10 0 60062 81900.00000 0 -23516354.356 6879639.725 7084596.908 10 0 60062 82800.00000 0 -22465958.270 6611239.424 10103549.762 10 0 60062 83700.00000 0 -21127257.151 6085621.608 12926160.547 10 0 60062 84600.00000 0 -19556070.880 5276522.501 15497574.484 10 0 60062 85500.00000 0 -17814409.602 4169720.685 17767820.887 10 0 60063 0.00000 0 -15967892.563 2763895.996 19692785.141 10 0 60063 900.00000 0 -14083034.322 1070944.041 21235066.713 10 0 60063 1800.00000 0 -12224514.727 -884266.045 22364704.141 10 0 60063 2700.00000 0 -10452543.637 -3064684.116 23059756.700 10 0 60063 3600.00000 0 -8820432.892 -5422387.953 23306729.099 10 0 60063 4500.00000 0 -7372475.718 -7900355.661 23100832.382 10 0 60063 5400.00000 0 -6142221.803 -10434628.409 22446076.041 10 0 60063 6300.00000 0 -5151219.434 -12956774.257 21355189.656 10 0 60063 7200.00000 0 -4408276.496 -15396551.087 19849375.579 10 0 60063 8100.00000 0 -3909270.348 -17684658.308 17957897.291 10 0 60063 9000.00000 0 -3637513.598 -19755463.170 15717511.209 10 0 60063 9900.00000 0 -3564659.467 -21549588.308 13171752.673 10 0 60063 10800.00000 0 -3652107.752 -23016252.806 10370089.773 10 0 60063 11700.00000 0 -3852851.305 -24115269.210 7366961.261 10 0 60063 12600.00000 0 -4113684.306 -24818613.148 4220717.265 10 0 60063 13500.00000 0 -4377678.328 -25111500.083 992483.518 10 0 60063 14400.00000 0 -4586820.793 -24992924.400 -2255028.555 10 0 60063 15300.00000 0 -4684703.559 -24475638.590 -5458742.331 10 0 60063 16200.00000 0 -4619147.251 -23585573.909 -8556442.938 10 0 60063 17100.00000 0 -4344649.741 -22360727.348 -11487986.418 10 0 60063 18000.00000 0 -3824554.716 -20849562.196 -14196467.301 10 0 60063 18900.00000 0 -3032848.145 -19108989.774 -16629321.811 10 0 60063 19800.00000 0 -1955506.306 -17202017.339 -18739345.388 10 0 60063 20700.00000 0 -591337.937 -15195160.885 -20485605.057 10 0 60063 21600.00000 0 1047715.640 -13155731.111 -21834229.424 10 0 60063 22500.00000 0 2936835.906 -11149105.730 -22759061.603 10 0 60063 23400.00000 0 5039128.316 -9236101.618 -23242162.993 10 0 60063 24300.00000 0 7306936.909 -7470555.789 -23274158.733 10 0 60063 25200.00000 0 9683618.671 -5897215.268 -22854418.539 10 0 60063 26100.00000 0 12105704.903 -4550023.033 -21991069.614 10 0 60063 27000.00000 0 14505360.718 -3450870.547 -20700841.349 10 0 60063 27900.00000 0 16813041.385 -2608868.115 -19008744.482 10 0 60063 28800.00000 0 18960235.724 -2020162.708 -16947590.502 10 0 60063 29700.00000 0 20882183.022 -1668310.130 -14557359.926 10 0 60063 30600.00000 0 22520450.581 -1525185.296 -11884431.061 10 0 60063 31500.00000 0 23825264.552 -1552391.802 -8980683.570 10 0 60063 32400.00000 0 24757496.641 -1703110.980 -5902493.805 10 0 60063 33300.00000 0 25290223.432 -1924311.969 -2709641.056 10 0 60063 34200.00000 0 25409792.730 -2159229.021 535853.996 10 0 60063 35100.00000 0 25116351.968 -2350000.727 3770935.929 10 0 60063 36000.00000 0 24423816.243 -2440358.915 6932742.497 10 0 60063 36900.00000 0 23359277.201 -2378252.651 9959829.436 10 0 60063 37800.00000 0 21961877.537 -2118295.523 12793367.814 10 0 60063 38700.00000 0 20281198.417 -1623931.776 15378290.183 10 0 60063 39600.00000 0 18375227.664 -869228.797 17664362.841 10 0 60063 40500.00000 0 16307994.070 159780.702 19607163.183 10 0 60063 41400.00000 0 14146967.091 1464264.440 21168943.131 10 0 60063 42300.00000 0 11960330.884 3032300.418 22319361.994 10 0 60063 43200.00000 0 9814246.575 4839144.136 23036074.822 10 0 60063 44100.00000 0 7770216.932 6848043.056 23305165.165 10 0 60063 45000.00000 0 5882663.105 9011565.223 23121414.147 10 0 60063 45900.00000 0 4196813.946 11273387.510 22488400.908 10 0 60063 46800.00000 0 2746995.279 13570469.677 21418432.578 10 0 60063 47700.00000 0 1555389.647 15835524.256 19932305.150 10 0 60063 48600.00000 0 631317.341 17999679.838 18058899.733 10 0 60063 49500.00000 0 -28932.288 19995227.088 15834621.794 10 0 60063 50400.00000 0 -441713.302 21758333.114 13302693.986 10 0 60063 51300.00000 0 -635096.832 23231610.993 10512316.075 10 0 60063 52200.00000 0 -647445.979 24366437.042 7517708.063 10 0 60063 53100.00000 0 -525553.035 25124918.856 4377055.154 10 0 60063 54000.00000 0 -322418.610 25481431.652 1151375.159 10 0 60063 54900.00000 0 -94767.379 25423658.547 -2096669.364 10 0 60063 55800.00000 0 99593.715 24953091.222 -5303990.720 10 0 60063 56700.00000 0 204462.306 24084970.169 -8408303.302 10 0 60063 57600.00000 0 167858.190 22847667.273 -11349334.217 10 0 60063 58500.00000 0 -55539.589 21281536.963 -14069993.427 10 0 60063 59400.00000 0 -502239.679 19437284.413 -16517480.613 10 0 60063 60300.00000 0 -1198160.738 17373919.355 -18644307.336 10 0 60063 61200.00000 0 -2157304.609 15156381.297 -20409214.924 10 0 60063 62100.00000 0 -3380936.741 12852935.359 -21777970.780 10 0 60063 63000.00000 0 -4857308.999 10532447.142 -22724028.242 10 0 60063 63900.00000 0 -6561937.295 8261649.913 -23229037.831 10 0 60063 64800.00000 0 -8458423.356 6102517.255 -23283200.538 10 0 60063 65700.00000 0 -10499787.345 4109849.790 -22885456.755 10 0 60063 66600.00000 0 -12630256.798 2329175.532 -22043507.374 10 0 60063 67500.00000 0 -14787438.394 795050.295 -20773666.658 10 0 60063 68400.00000 0 -16904783.038 -470172.043 -19100549.411 10 0 60063 69300.00000 0 -18914242.378 -1457049.073 -17056598.057 10 0 60063 70200.00000 0 -20749006.649 -2169210.471 -14681458.159 10 0 60063 71100.00000 0 -22346210.055 -2622963.795 -12021213.777 10 0 60063 72000.00000 0 -23649490.809 -2846362.740 -9127496.910 10 0 60063 72900.00000 0 -24611298.730 -2877777.683 -6056487.769 10 0 60063 73800.00000 0 -25194853.505 -2764029.340 -2867824.998 10 0 60063 74700.00000 0 -25375671.116 -2558164.851 376553.040 10 0 60063 75600.00000 0 -25142593.889 -2316970.876 3613613.230 10 0 60063 76500.00000 0 -24498280.426 -2098329.498 6780455.150 10 0 60063 77400.00000 0 -23459134.400 -1958529.524 9815536.630 10 0 60063 78300.00000 0 -22054674.839 -1949647.743 12659873.031 10 0 60063 79200.00000 0 -20326374.083 -2117111.696 15258186.493 10 0 60063 80100.00000 0 -18326012.051 -2497547.880 17559982.358 10 0 60063 81000.00000 0 -16113615.702 -3117007.134 19520531.671 10 0 60063 81900.00000 0 -13755069.946 -3989642.945 21101740.639 10 0 60063 82800.00000 0 -11319499.844 -5116899.263 22272890.273 10 0 60063 83700.00000 0 -8876533.338 -6487242.891 23011232.142 10 0 60063 84600.00000 0 -6493558.435 -8076452.639 23302429.001 10 0 60063 85500.00000 0 -4233088.850 -9848454.001 23140832.063 10 0 60064 0.00000 0 -2150347.506 -11756665.136 22529589.873 10 0 60064 900.00000 0 -291166.747 -13745799.708 21480586.393 10 0 60064 1800.00000 0 1309705.304 -15754049.353 20014210.409 10 0 60064 2700.00000 0 2629826.328 -17715558.539 18158959.525 10 0 60064 3600.00000 0 3659756.614 -19563086.322 15950886.872 10 0 60064 4500.00000 0 4403204.258 -21230744.940 13432900.784 10 0 60064 5400.00000 0 4876613.725 -22656700.635 10653930.828 10 0 60064 6300.00000 0 5108216.290 -23785723.579 7667976.178 10 0 60064 7200.00000 0 5136583.490 -24571479.941 4533054.854 10 0 60064 8100.00000 0 5008745.706 -24978469.754 1310074.350 10 0 60064 9000.00000 0 4777956.332 -24983529.102 -1938354.129 10 0 60064 9900.00000 0 4501196.939 -24576833.375 -5149134.369 10 0 60064 10800.00000 0 4236529.776 -23762359.386 -8259912.631 10 0 60064 11700.00000 0 4040410.275 -22557786.924 -11210289.708 10 0 60064 12600.00000 0 3965073.822 -20993843.914 -13942993.626 10 0 60064 13500.00000 0 4056107.714 -19113122.710 -16404990.108 10 0 60064 14400.00000 0 4350311.231 -16968417.148 -18548509.317 10 0 60064 15300.00000 0 4873934.473 -14620649.894 -20331969.191 10 0 60064 16200.00000 0 5641370.482 -12136476.521 -21720777.972 10 0 60064 17100.00000 0 6654356.119 -9585665.956 -22688000.942 10 0 60064 18000.00000 0 7901715.783 -7038365.935 -23214879.075 10 0 60064 18900.00000 0 9359659.403 -4562366.641 -23291190.134 10 0 60064 19800.00000 0 10992623.062 -2220475.442 -22915445.686 10 0 60064 20700.00000 0 12754618.013 -68110.992 -22094920.399 10 0 60064 21600.00000 0 14591032.699 1848784.323 -20845513.090 10 0 60064 22500.00000 0 16440813.507 3495427.789 -19191441.901 10 0 60064 23400.00000 0 18238934.030 4849406.519 -17164779.059 10 0 60064 24300.00000 0 19919050.390 5901364.883 -14804833.597 10 0 60064 25200.00000 0 21416232.132 6655141.401 -12157393.322 10 0 60064 26100.00000 0 22669654.628 7127350.207 -9273840.104 10 0 60064 27000.00000 0 23625140.213 7346425.419 -6210155.150 10 0 60064 27900.00000 0 24237441.235 7351169.326 -3025833.237 10 0 60064 28800.00000 0 24472168.715 7188866.234 217273.057 10 0 60064 29700.00000 0 24307285.015 6913042.232 3456156.509 10 0 60064 30600.00000 0 23734097.075 6580966.220 6627882.115 10 0 60064 31500.00000 0 22757707.793 6250998.540 9670813.255 10 0 60064 32400.00000 0 21396905.917 5979900.115 12525812.823 10 0 60064 33300.00000 0 19683498.508 5820216.610 15137395.483 10 0 60064 34200.00000 0 17661113.540 5817848.980 17454808.213 10 0 60064 35100.00000 0 15383522.459 6009913.757 19433017.933 10 0 60064 36000.00000 0 12912552.610 6422984.101 21033586.977 10 0 60064 36900.00000 0 10315676.595 7071786.462 22225419.511 10 0 60064 37800.00000 0 7663378.880 7958408.427 22985364.656 10 0 60064 38700.00000 0 5026409.147 9072051.736 23298664.980 10 0 60064 39600.00000 0 2473036.383 10389341.562 23159241.922 10 0 60064 40500.00000 0 66417.481 11875179.736 22569812.924 10 0 60064 41400.00000 0 -2137810.845 13484106.871 21541838.127 10 0 60064 42300.00000 0 -4093617.364 15162116.905 20095297.666 10 0 60064 43200.00000 0 -5766252.951 16848848.627 18258303.773 10 0 60064 44100.00000 0 -7133449.688 18480062.809 16066554.961 10 0 60064 45000.00000 0 -8186093.482 19990301.444 13562642.619 10 0 60064 45900.00000 0 -8928343.309 21315617.691 10795223.230 10 0 60064 46800.00000 0 -9377193.348 22396262.033 7818072.082 10 0 60064 47700.00000 0 -9561497.633 23179211.644 4689036.855 10 0 60064 48600.00000 0 -9520499.515 23620436.484 1468911.542 10 0 60064 49500.00000 0 -9301929.093 23686806.538 -1779747.178 10 0 60064 50400.00000 0 -8959749.971 23357559.681 -4993837.640 10 0 60064 51300.00000 0 -8551651.494 22625268.142 -8110940.903 10 0 60064 52200.00000 0 -8136393.261 21496262.714 -11070534.153 10 0 60064 53100.00000 0 -7771114.806 19990496.642 -13815165.916 10 0 60064 54000.00000 0 -7508724.631 18140854.771 -16291570.081 10 0 60064 54900.00000 0 -7395479.161 15991936.653 -18451697.205 10 0 60064 55800.00000 0 -7468854.022 13598364.371 -20253643.296 10 0 60064 56700.00000 0 -7755797.499 11022685.398 -21662458.571 10 0 60064 57600.00000 0 -8271439.846 8332957.553 -22650821.083 10 0 60064 58500.00000 0 -9018312.948 5600116.058 -23199562.768 10 0 60064 59400.00000 0 -9986113.415 2895231.501 -23298038.355 10 0 60064 60300.00000 0 -11152019.544 286771.783 -22944330.414 10 0 60064 61200.00000 0 -12481549.500 -2162019.141 -22145286.835 10 0 60064 62100.00000 0 -13929925.531 -4395517.896 -20916390.021 10 0 60064 63000.00000 0 -15443887.958 -6367795.162 -19281460.069 10 0 60064 63900.00000 0 -16963883.796 -8044280.751 -17272197.224 10 0 60064 64800.00000 0 -18426539.114 -9402951.947 -14927571.869 10 0 60064 65700.00000 0 -19767312.113 -10434996.443 -12293073.153 10 0 60064 66600.00000 0 -20923216.014 -11144923.013 -9419830.220 10 0 60064 67500.00000 0 -21835497.543 -11550116.063 -6363622.550 10 0 60064 68400.00000 0 -22452158.350 -11679853.520 -3183798.265 10 0 60064 69300.00000 0 -22730212.870 -11573830.051 57878.648 10 0 60064 70200.00000 0 -22637587.042 -11280248.555 3298429.670 10 0 60064 71100.00000 0 -22154577.178 -10853561.136 6474887.991 10 0 60064 72000.00000 0 -21274806.729 -10351955.696 9525525.262 10 0 60064 72900.00000 0 -20005639.842 -9834695.052 12391054.529 10 0 60064 73800.00000 0 -18368033.479 -9359421.757 15015785.440 10 0 60064 74700.00000 0 -16395833.567 -8979543.170 17348708.845 10 0 60064 75600.00000 0 -14134544.049 -8741807.847 19344489.475 10 0 60064 76500.00000 0 -11639619.787 -8684176.083 20964347.375 10 0 60064 77400.00000 0 -8974354.216 -8834074.895 22176811.036 10 0 60064 78300.00000 0 -6207449.449 -9207111.404 22958327.905 10 0 60064 79200.00000 0 -3410369.637 -9806299.156 23293720.711 10 0 60064 80100.00000 0 -654587.314 -10621830.329 23176481.091 10 0 60064 81000.00000 0 1991163.298 -11631403.810 22608895.090 10 0 60064 81900.00000 0 4463512.447 -12801095.769 21601998.249 10 0 60064 82800.00000 0 6706851.991 -14086736.632 20175361.145 10 0 60064 83700.00000 0 8675404.607 -15435737.033 18356709.451 10 0 60064 84600.00000 0 10334879.841 -16789286.455 16181385.624 10 0 60064 85500.00000 0 11663648.941 -18084832.450 13691662.409 10 0 60065 0.00000 0 12653390.437 -19258736.320 10935921.496 10 0 60065 900.00000 0 13309181.086 -20248994.179 7967711.563 10 0 60065 1800.00000 0 13649028.356 -20997907.229 4844707.729 10 0 60065 2700.00000 0 13702867.052 -21454590.688 1627587.840 10 0 60065 3600.00000 0 13511062.155 -21577213.747 -1621148.696 10 0 60065 4500.00000 0 13122482.677 -21334876.449 -4838397.570 10 0 60065 5400.00000 0 12592228.766 -20709043.900 -7961677.405 10 0 60065 6300.00000 0 11979108.905 -19694477.025 -10930344.491 10 0 60065 7200.00000 0 11342974.470 -18299620.306 -13686770.454 10 0 60065 8100.00000 0 10742024.759 -16546429.801 -16177459.817 10 0 60065 9000.00000 0 10230196.536 -14469648.274 -18354085.817 10 0 60065 9900.00000 0 9854748.383 -12115557.353 -20174424.605 10 0 60065 10800.00000 0 9654141.632 -9540258.373 -21603170.183 10 0 60065 11700.00000 0 9656307.025 -6807553.052 -22612614.855 10 0 60065 12600.00000 0 9877369.905 -3986511.589 -23183182.657 10 0 60065 13500.00000 0 10320887.447 -1148828.534 -23303806.028 10 0 60065 14400.00000 0 10977630.072 1633924.650 -22972138.909 10 0 60065 15300.00000 0 11825916.411 4293037.211 -22194602.392 10 0 60065 16200.00000 0 12832488.217 6765274.327 -20986262.081 10 0 60065 17100.00000 0 13953889.062 8995262.380 -19370539.274 10 0 60065 18000.00000 0 15138289.623 10937546.122 -17378761.114 10 0 60065 18900.00000 0 16327683.596 12558233.106 -15049557.833 10 0 60065 19800.00000 0 17460362.629 13836157.735 -12428118.036 10 0 60065 20700.00000 0 18473566.625 14763517.059 -9565315.864 10 0 60065 21600.00000 0 19306198.192 15345952.512 -6516726.421 10 0 60065 22500.00000 0 19901486.896 15602074.788 -3341548.202 10 0 60065 23400.00000 0 20209490.760 15562452.497 -101453.386 10 0 60065 24300.00000 0 20189329.044 15268107.782 3140611.568 10 0 60065 25200.00000 0 19811051.388 14768582.970 6321651.422 10 0 60065 26100.00000 0 19057063.644 14119660.453 9379849.400 10 0 60065 27000.00000 0 17923049.330 13380832.734 12255771.829 10 0 60065 27900.00000 0 16418346.894 12612630.111 14893526.231 10 0 60065 28800.00000 0 14565765.946 11873919.428 17241849.931 10 0 60065 29700.00000 0 12400849.252 11219288.458 19255107.769 10 0 60065 30600.00000 0 9970610.571 10696626.652 20894179.460 10 0 60065 31500.00000 0 7331800.382 10345004.605 22127219.447 10 0 60065 32400.00000 0 4548771.248 10192941.740 22930274.740 10 0 60065 33300.00000 0 1691031.163 10257135.292 23287749.060 10 0 60065 34200.00000 0 -1169413.841 10541704.140 23192704.626 10 0 60065 35100.00000 0 -3960817.911 11037979.341 22646995.968 10 0 60065 36000.00000 0 -6614440.417 11724850.266 21661233.385 10 0 60065 36900.00000 0 -9067164.353 12569651.888 20254576.716 10 0 60065 37800.00000 0 -11263879.999 13529556.059 18454363.375 10 0 60065 38700.00000 0 -13159535.421 14553408.431 16295577.587 10 0 60065 39600.00000 0 -14720769.234 15583933.816 13820170.888 10 0 60065 40500.00000 0 -15927058.424 16560217.239 11076246.808 10 0 60065 41400.00000 0 -16771334.276 17420356.107 8117125.361 10 0 60065 42300.00000 0 -17260041.631 18104171.560 5000305.493 10 0 60065 43200.00000 0 -17412640.138 18555864.389 1786345.746 10 0 60065 44100.00000 0 -17260569.564 18726503.100 -1462314.867 10 0 60065 45000.00000 0 -16845723.853 18576238.710 -4682572.432 10 0 60065 45900.00000 0 -16218499.267 18076152.332 -7811886.057 10 0 60065 46800.00000 0 -15435499.891 17209657.139 -10789493.886 10 0 60065 47700.00000 0 -14556998.075 15973395.123 -13557593.178 10 0 60065 48600.00000 0 -13644257.552 14377590.382 -16062461.345 10 0 60065 49500.00000 0 -12756832.453 12445843.533 -18255496.258 10 0 60065 50400.00000 0 -11949956.238 10214375.272 -20094155.819 10 0 60065 51300.00000 0 -11272130.369 7730750.078 -21542779.070 10 0 60065 52200.00000 0 -10763013.984 5052132.613 -22573273.480 10 0 60065 53100.00000 0 -10451702.923 2243148.672 -23165655.741 10 0 60065 54000.00000 0 -10355470.062 -626561.204 -23308436.218 10 0 60065 54900.00000 0 -10479019.498 -3484994.802 -22998840.072 10 0 60065 55800.00000 0 -10814285.742 -6260538.828 -22242861.085 10 0 60065 56700.00000 0 -11340786.283 -8884703.931 -21055147.158 10 0 60065 57600.00000 0 -12026512.901 -11294731.649 -19458719.508 10 0 60065 58500.00000 0 -12829324.589 -13435965.950 -17484530.541 10 0 60065 59400.00000 0 -13698783.963 -15263891.651 -15170868.377 10 0 60065 60300.00000 0 -14578360.362 -16745755.624 -12562618.854 10 0 60065 61200.00000 0 -15407907.270 -17861703.829 -9710398.698 10 0 60065 62100.00000 0 -16126309.927 -18605387.254 -6669576.094 10 0 60065 63000.00000 0 -16674191.504 -18984011.958 -3499197.294 10 0 60065 63900.00000 0 -16996563.461 -19017831.600 -260840.010 10 0 60065 64800.00000 0 -17045307.711 -18739104.314 2982584.035 10 0 60065 65700.00000 0 -16781385.131 -18190558.378 6168053.860 10 0 60065 66600.00000 0 -16176676.275 -17423431.878 9233666.930 10 0 60065 67500.00000 0 -15215375.616 -16495169.625 12119845.462 10 0 60065 68400.00000 0 -13894879.449 -15466875.019 14770497.363 10 0 60065 69300.00000 0 -12226128.947 -14400624.923 17134108.768 10 0 60065 70200.00000 0 -10233392.835 -13356761.188 19164746.715 10 0 60065 71100.00000 0 -7953497.766 -12391273.351 20822952.379 10 0 60065 72000.00000 0 -5434537.617 -11553382.950 22076507.580 10 0 60065 72900.00000 0 -2734114.776 -10883431.204 22901059.927 10 0 60065 73800.00000 0 82814.062 -10411158.813 23280594.795 10 0 60065 74700.00000 0 2946398.583 -10154450.080 23207745.251 10 0 60065 75600.00000 0 5784560.369 -10118593.856 22683934.247 10 0 60065 76500.00000 0 8525753.097 -10296092.126 21719346.446 10 0 60065 77400.00000 0 11101703.319 -10667024.031 20332730.275 10 0 60065 78300.00000 0 13450018.547 -11199949.797 18551033.924 10 0 60065 79200.00000 0 15516554.816 -11853316.360 16408882.148 10 0 60065 80100.00000 0 17257445.772 -12577305.363 13947903.731 10 0 60065 81000.00000 0 18640709.415 -13316045.477 11215922.434 10 0 60065 81900.00000 0 19647366.175 -14010095.603 8266026.915 10 0 60065 82800.00000 0 20272022.349 -14599093.872 5155537.668 10 0 60065 83700.00000 0 20522895.393 -15024460.297 1944891.142 10 0 60065 84600.00000 0 20421280.959 -15232038.487 -1303537.027 10 0 60065 85500.00000 0 20000485.088 -15174564.347 -4526646.390 99